[[{"header":{"parameterUnit":"m.s-1","parameterCategory":1,"la1":30.2991,"la2":30.254,"lo1":-89.0895,"lo2":-89.0444,"dy":0.0017,"dx":0.0017,"nx":28,"ny":28,"refTime":"2026-02-25T03:00:00:Z","depth":0,"parameterNumber":2,"parameterNumberName":"U-component_of_WINDS"},"data":[0,0,0,0,0,0,0,0,0,0,0,0,0,0,0,0,0,0,0,0,0,0,0,0,0,0,0,0,0,0,0,0,0,0,0,0,0,0,0,0,0,0,0,0,0,0,0,0,0,0,0,0,0,0,0,0,0,0,0.2819,0.282,0,0.2917,0.2918,0.2919,0.2951,0.2951,0.2951,0.295,0.3056,0.3059,0.3062,0,0,0,0,0,0,0,0,0,0,0,0,0,0.2667,0.267,0.2819,0.282,0.2822,0.2917,0.2918,0.2919,0.2952,0.2951,0.295,0.295,0.3055,0.3059,0.3063,0,0,0,0,0,0,0,0,0,0,0,0,0,0.2746,0.267,0.2819,0.2849,0.2853,0.2916,0.2918,0.292,0.2952,0.2951,0.295,0.295,0.3054,0.3058,0.3063,0.3106,0,0,0.3078,0.308,0,0,0,0,0,0,0,0,0.2741,0.2751,0.2843,0.2847,0.2851,0.2921,0.2903,0.2982,0.2952,0.2914,0.295,0.2949,0.3012,0.302,0.304,0.3111,0.3115,0.3078,0.3081,0.3083,0.3085,0,0,0,0,0,0,0,0.2736,0.2747,0.2858,0.2845,0.2849,0.286,0.287,0.2918,0.2966,0.2917,0.292,0.2931,0.3014,0.3035,0.3043,0.3117,0.3078,0.3082,0.3085,0.3087,0.323,0.323,0,0,0,0,0,0,0.2724,0.2743,0.2855,0.2861,0.2793,0.2863,0.2875,0.2899,0.2965,0.2975,0.2931,0.2932,0.3027,0.3037,0.3047,0.3103,0.3083,0.3088,0.309,0.3229,0.323,0.3231,0,0,0,0,0,0,0.2721,0.2734,0.2851,0.2802,0.2818,0.2866,0.2894,0.2902,0.2923,0.2976,0.2985,0.2944,0.3027,0.304,0.3091,0.3107,0.309,0.3094,0.3228,0.3229,0.323,0.3213,0,0,0,0,0,0,0.2716,0.2733,0.2748,0.2802,0.282,0.2891,0.2895,0.2904,0.2931,0.2932,0.299,0.2999,0.3028,0.3083,0.3096,0.3113,0.3098,0.3227,0.3228,0.323,0.3213,0.3214,0.3215,0,0,0,0,0,0.2711,0.274,0.2748,0.2762,0.284,0.2892,0.2903,0.2934,0.2932,0.2948,0.2982,0.2997,0.3102,0.3088,0.3102,0.3121,0.3226,0.3228,0.323,0.3212,0.3214,0.3215,0,0,0,0,0,0,0.2688,0.2748,0.2758,0.2805,0.2843,0.2897,0.292,0.2934,0.2975,0.2975,0.3014,0.3027,0.3075,0.3103,0.3087,0.3167,0.3165,0.317,0.3147,0.3149,0.315,0.3143,0.3102,0,0,0,0,0,0.2687,0.2723,0.2774,0.2811,0.2829,0.2871,0.2895,0.2915,0.2957,0.2974,0.3012,0.3054,0.3097,0.3124,0.3166,0.3217,0.3231,0.3237,0.3238,0.3238,0.3243,0.3274,0.3277,0.3237,0.3237,0.3237,0,0,0.2689,0.2726,0.2746,0.2807,0.2839,0.2877,0.2885,0.2924,0.2953,0.2981,0.3031,0.306,0.311,0.3161,0.3186,0.3186,0.3257,0.3241,0.3241,0.3245,0.3276,0.328,0.3283,0.3239,0.3238,0.3238,0,0,0.271,0.2741,0.2776,0.2807,0.2855,0.2883,0.2891,0.2944,0.2964,0.3014,0.3036,0.3073,0.3145,0.318,0.3207,0.3242,0.3258,0.3255,0.3262,0.3291,0.3294,0.3297,0.3312,0.3317,0.3259,0.3259,0.3259,0,0.2706,0.2762,0.2792,0.2831,0.2858,0.2883,0.292,0.295,0.301,0.3029,0.3028,0.312,0.3155,0.3216,0.3224,0.3245,0.3258,0.3249,0.3291,0.3294,0.3298,0.3312,0.3317,0.3258,0.3258,0.3258,0.3259,0,0.2756,0.2794,0.2817,0.2873,0.2903,0.294,0.2978,0.3005,0.3023,0.3051,0.3104,0.3147,0.3198,0.3214,0.3233,0.3278,0.3277,0.3283,0.3282,0.33,0.3315,0.3321,0.3258,0.3258,0.3258,0.3258,0,0,0.2766,0.2837,0.2845,0.2872,0.2926,0.2958,0.2998,0.3047,0.307,0.3111,0.3147,0.3208,0.3214,0.3245,0.3267,0.3293,0.3321,0.3296,0.3298,0.3301,0.3376,0.3373,0.3378,0.3331,0.3332,0.3333,0.3373,0,0.2796,0.2865,0.2894,0.2952,0.2989,0.3014,0.3049,0.3087,0.3115,0.3153,0.3184,0.3227,0.3231,0.325,0.3276,0.3312,0.3337,0.3309,0.3367,0.3369,0.3356,0.3386,0.3382,0.3417,0.3378,0.3379,0.338,0,0.284,0.2879,0.294,0.2992,0.3009,0.3039,0.3088,0.3122,0.3168,0.3186,0.3221,0.3242,0.3287,0.3282,0.3346,0.3326,0.3352,0.3373,0.3375,0.3383,0.3377,0.3396,0.3429,0.3435,0.3389,0.3388,0.3387,0,0.2843,0.2912,0.2958,0.2979,0.304,0.3061,0.3088,0.3132,0.3161,0.3203,0.3223,0.327,0.3297,0.3335,0.337,0.3362,0.3431,0.3428,0.345,0.3449,0.3465,0.3464,0.3504,0.3478,0.3478,0.3478,0.3478,0,0.2875,0.2911,0.296,0.2988,0.3031,0.3064,0.3107,0.3135,0.3175,0.3211,0.3235,0.3269,0.3312,0.3352,0.338,0.343,0.3441,0.3459,0.3467,0.3458,0.3456,0.3477,0.3476,0.3479,0.3479,0.3479,0.3479,0,0.2886,0.292,0.2972,0.3025,0.3039,0.3068,0.3115,0.3145,0.3173,0.3219,0.3232,0.3278,0.3326,0.3364,0.3427,0.3446,0.35,0.3507,0.3484,0.3488,0.3508,0.3506,0.3564,0.3575,0.354,0.354,0.3541,0,0.2905,0.2933,0.2989,0.3014,0.304,0.3081,0.3109,0.3144,0.3173,0.3228,0.3251,0.3301,0.3343,0.3419,0.346,0.3509,0.3519,0.3536,0.3527,0.3518,0.3522,0.352,0.3524,0.3537,0.3537,0.3538,0.3538,0,0.2935,0.295,0.2989,0.3035,0.3068,0.3106,0.3145,0.3165,0.3207,0.3239,0.3288,0.332,0.3385,0.3435,0.3488,0.3518,0.3536,0.354,0.3548,0.3541,0.3527,0.3537,0.3489,0.3539,0.3539,0.3539,0.3539,0.3539,0.2952,0.2979,0.3023,0.3067,0.3099,0.3135,0.3166,0.3198,0.3239,0.3293,0.3311,0.3362,0.3409,0.3482,0.3513,0.3555,0.3556,0.3567,0.357,0.3573,0.3573,0.3518,0.3565,0.3565,0.3565,0.3565,0.3565,0,0.2985,0.3014,0.3054,0.3107,0.3142,0.3153,0.3197,0.3226,0.327,0.3311,0.3351,0.3409,0.3458,0.3502,0.3553,0.3579,0.3588,0.3591,0.3591,0.3598,0.3568,0.3557,0.3583,0.3583,0.3583,0.3583,0.3583,0.3583,0.3006,0.3053,0.3074,0.3139,0.3169,0.3217,0.3242,0.3276,0.3309,0.3371,0.3412,0.3439,0.3483,0.3537,0.3584,0.3596,0.3615,0.3616,0.363,0.3602,0.36,0.3598,0.3587,0.3619,0.3619,0.3657,0.3657,0.3657]},{"header":{"parameterUnit":"m.s-1","parameterCategory":1,"la1":30.2991,"la2":30.254,"lo1":-89.0895,"lo2":-89.0444,"dy":0.0017,"dx":0.0017,"nx":28,"ny":28,"refTime":"2026-02-25T03:00:00:Z","depth":0,"parameterNumber":3,"parameterNumberName":"V-component_of_WINDS"},"data":[0,0,0,0,0,0,0,0,0,0,0,0,0,0,0,0,0,0,0,0,0,0,0,0,0,0,0,0,0,0,0,0,0,0,0,0,0,0,0,0,0,0,0,0,0,0,0,0,0,0,0,0,0,0,0,0,0,0,5.8142,5.8142,0,5.8152,5.8152,5.8152,5.8153,5.8153,5.8153,5.8153,5.8156,5.8156,5.8157,0,0,0,0,0,0,0,0,0,0,0,0,0,5.812,5.812,5.8142,5.8142,5.8142,5.8152,5.8152,5.8152,5.8153,5.8153,5.8153,5.8152,5.8156,5.8156,5.8157,0,0,0,0,0,0,0,0,0,0,0,0,0,5.8129,5.812,5.8142,5.8144,5.8144,5.8152,5.8152,5.8152,5.8153,5.8153,5.8153,5.8152,5.8156,5.8156,5.8157,5.8161,0,0,5.8157,5.8157,0,0,0,0,0,0,0,0,5.8129,5.813,5.8143,5.8144,5.8144,5.8151,5.8145,5.8155,5.8153,5.8149,5.8153,5.8152,5.8154,5.8155,5.8156,5.8161,5.8161,5.8157,5.8158,5.8158,5.8158,0,0,0,0,0,0,0,5.8128,5.8129,5.8145,5.8143,5.8144,5.8143,5.8144,5.8147,5.8152,5.815,5.815,5.8151,5.8154,5.8156,5.8157,5.8161,5.8157,5.8158,5.8158,5.8158,5.8173,5.8174,0,0,0,0,0,0,5.8128,5.8129,5.8145,5.8146,5.8136,5.8143,5.8145,5.8149,5.8152,5.8153,5.8151,5.8151,5.8156,5.8156,5.8157,5.8165,5.8158,5.8158,5.8158,5.8173,5.8173,5.8174,0,0,0,0,0,0,5.8127,5.8129,5.8145,5.8137,5.8139,5.8144,5.8148,5.8149,5.8151,5.8154,5.8154,5.8153,5.8156,5.8156,5.8161,5.8164,5.8158,5.8158,5.8173,5.8173,5.8173,5.8178,0,0,0,0,0,0,5.8126,5.8129,5.8131,5.8138,5.814,5.815,5.8149,5.8149,5.8152,5.8152,5.8155,5.8155,5.8156,5.8161,5.8161,5.8165,5.8158,5.8172,5.8173,5.8173,5.8178,5.8179,5.818,0,0,0,0,0,5.8126,5.813,5.8131,5.8133,5.8143,5.815,5.8151,5.8154,5.8153,5.8155,5.8157,5.8155,5.8164,5.8161,5.8162,5.8165,5.8172,5.8173,5.8173,5.8178,5.8179,5.818,0,0,0,0,0,0,5.812,5.813,5.8132,5.8139,5.8144,5.815,5.8153,5.8154,5.8158,5.8157,5.8158,5.8159,5.8164,5.8165,5.8162,5.8172,5.8168,5.8169,5.8171,5.8172,5.8173,5.8173,5.8159,0,0,0,0,0,5.812,5.8127,5.8135,5.8139,5.8143,5.8148,5.815,5.8153,5.8157,5.8158,5.8161,5.8164,5.8168,5.817,5.8173,5.8178,5.818,5.8181,5.8182,5.8183,5.8183,5.8189,5.8191,5.8175,5.8175,5.8175,0,0,5.8119,5.8126,5.8129,5.8139,5.8143,5.8149,5.8149,5.8154,5.8159,5.8158,5.8165,5.8167,5.817,5.8176,5.8179,5.8177,5.8188,5.8184,5.8184,5.8184,5.819,5.8192,5.8193,5.8176,5.8176,5.8176,0,0,5.8121,5.8126,5.8132,5.8138,5.8146,5.815,5.8152,5.8159,5.8161,5.8168,5.8169,5.8174,5.8179,5.8183,5.8185,5.8194,5.8193,5.8194,5.8199,5.8205,5.8206,5.8207,5.8212,5.8213,5.8195,5.8195,5.8195,0,5.8118,5.8129,5.8135,5.8142,5.8147,5.8151,5.8157,5.8162,5.8169,5.8172,5.8171,5.8181,5.8183,5.8192,5.8195,5.8196,5.8198,5.8194,5.8206,5.8207,5.8208,5.8213,5.8214,5.8195,5.8195,5.8195,5.8195,0,5.8126,5.8134,5.8138,5.815,5.8155,5.8161,5.8168,5.8173,5.8175,5.8179,5.8187,5.8191,5.8197,5.8199,5.8199,5.8208,5.8207,5.8206,5.8202,5.821,5.8214,5.8216,5.8196,5.8196,5.8196,5.8196,0,0,5.8121,5.814,5.8142,5.8149,5.816,5.8165,5.8173,5.8182,5.8187,5.8192,5.8199,5.8206,5.8207,5.8209,5.8211,5.8216,5.8225,5.8214,5.8214,5.8217,5.8238,5.824,5.8242,5.8225,5.8225,5.8226,5.8238,0,5.8126,5.8142,5.815,5.8162,5.8171,5.8176,5.8183,5.8191,5.8195,5.8202,5.8207,5.8213,5.8211,5.8214,5.8219,5.8223,5.8229,5.8222,5.8231,5.8232,5.8232,5.8244,5.8245,5.8257,5.824,5.824,5.824,0,5.8132,5.8143,5.8157,5.8172,5.8175,5.8182,5.8192,5.8199,5.8208,5.8211,5.8218,5.822,5.8228,5.8225,5.8237,5.8232,5.8236,5.8239,5.824,5.8241,5.8237,5.8247,5.826,5.8263,5.8243,5.8242,5.8242,0,5.813,5.8147,5.816,5.8165,5.8181,5.8186,5.8192,5.8202,5.8208,5.8217,5.8221,5.8229,5.8234,5.824,5.8245,5.8242,5.8258,5.8254,5.8261,5.8261,5.8263,5.8263,5.8279,5.8265,5.8265,5.8265,5.8265,0,5.8134,5.8143,5.816,5.8167,5.8178,5.8187,5.8197,5.8203,5.8212,5.8221,5.8225,5.8232,5.8238,5.8246,5.825,5.8261,5.8262,5.8265,5.8266,5.8265,5.8265,5.8268,5.8268,5.8265,5.8265,5.8265,5.8265,0,5.8133,5.8144,5.8158,5.8174,5.8179,5.8186,5.8199,5.8207,5.8214,5.8225,5.8227,5.8237,5.8248,5.8254,5.8265,5.8268,5.8281,5.828,5.8279,5.8279,5.8287,5.8287,5.8306,5.831,5.8291,5.8292,5.8292,0,5.8135,5.8143,5.8162,5.817,5.8178,5.8189,5.8197,5.8207,5.8214,5.8228,5.8234,5.8246,5.8255,5.8272,5.8279,5.8289,5.829,5.8296,5.8291,5.8292,5.8292,5.8292,5.8294,5.8297,5.8297,5.8297,5.8297,0,5.8139,5.8146,5.8158,5.8174,5.8184,5.8196,5.8207,5.8213,5.8224,5.8233,5.8246,5.8254,5.8269,5.8281,5.8292,5.8298,5.83,5.8299,5.8302,5.8301,5.8301,5.8303,5.8282,5.8298,5.8298,5.8298,5.8298,5.8298,5.814,5.8149,5.8166,5.818,5.8191,5.8203,5.8212,5.8222,5.8234,5.8249,5.8254,5.8268,5.8279,5.8296,5.8302,5.8313,5.8311,5.8314,5.8315,5.8316,5.8318,5.8299,5.8314,5.8314,5.8314,5.8314,5.8314,0,5.8146,5.8158,5.8172,5.819,5.8202,5.8207,5.8221,5.823,5.8244,5.8256,5.8267,5.8283,5.8296,5.8306,5.8319,5.8326,5.8327,5.8329,5.8329,5.8331,5.8317,5.8314,5.8328,5.8328,5.8328,5.8328,5.8328,5.8328,5.815,5.8167,5.8176,5.8198,5.8209,5.8226,5.8234,5.8245,5.8256,5.8275,5.8287,5.8295,5.8306,5.8321,5.8333,5.8336,5.8341,5.8343,5.8346,5.8332,5.8331,5.833,5.8328,5.8344,5.8344,5.8359,5.8359,5.8359]}]]